Time,TemperatureF,DewpointF,PressureIn,WindDirection,WindDirectionDegrees,WindSpeedMPH,WindSpeedGustMPH,Humidity,HourlyPrecipIn,Conditions,Clouds,dailyrainin,SoftwareType,DateUTC
2013-03-12 00:00:00,57.6,54.4,29.88,SE,135,4.0,7.0,89,0.00,,,0.01,Wunderground v.1.15,2013-03-12 04:00:00,
2013-03-12 00:05:00,57.4,54.2,29.88,SSE,163,3.0,8.0,89,0.00,,,0.01,Wunderground v.1.15,2013-03-12 04:05:00,
2013-03-12 00:10:00,57.2,54.3,29.87,SSE,163,4.0,8.0,90,0.00,,,0.01,Wunderground v.1.15,2013-03-12 04:10:00,
2013-03-12 00:15:00,57.0,54.4,29.88,SW,226,3.0,9.0,91,0.00,,,0.01,Wunderground v.1.15,2013-03-12 04:15:00,
2013-03-12 00:20:00,56.9,54.3,29.88,SW,234,3.0,3.0,91,0.05,,,0.02,Wunderground v.1.15,2013-03-12 04:20:00,
2013-03-12 00:25:00,56.6,54.6,29.88,SSW,195,0.0,4.0,93,0.05,,,0.02,Wunderground v.1.15,2013-03-12 04:25:00,
2013-03-12 00:30:00,56.4,54.7,29.88,SSW,200,2.0,4.0,94,0.06,,,0.03,Wunderground v.1.15,2013-03-12 04:30:00,
2013-03-12 00:35:00,56.3,54.6,29.88,SW,232,1.0,6.0,94,0.06,,,0.03,Wunderground v.1.15,2013-03-12 04:35:00,
2013-03-12 00:40:00,56.2,54.8,29.88,SE,136,1.0,4.0,95,0.04,,,0.03,Wunderground v.1.15,2013-03-12 04:40:00,
2013-03-12 00:45:00,56.1,54.7,29.87,SW,231,4.0,4.0,95,0.00,,,0.03,Wunderground v.1.15,2013-03-12 04:45:00,
2013-03-12 00:50:00,56.1,54.7,29.87,South,178,1.0,3.0,95,0.00,,,0.04,Wunderground v.1.15,2013-03-12 04:50:00,
2013-03-12 00:55:00,56.0,54.6,29.87,South,177,2.0,3.0,95,0.00,,,0.04,Wunderground v.1.15,2013-03-12 04:55:00,
2013-03-12 01:01:00,56.0,54.9,29.87,SSE,160,1.0,1.0,96,0.05,,,0.05,Wunderground v.1.15,2013-03-12 05:01:00,
2013-03-12 01:07:00,55.9,54.8,29.86,SSE,148,2.0,2.0,96,0.05,,,0.05,Wunderground v.1.15,2013-03-12 05:07:00,
2013-03-12 01:13:00,55.9,54.8,29.86,SW,225,3.0,4.0,96,0.05,,,0.05,Wunderground v.1.15,2013-03-12 05:13:00,
2013-03-12 01:19:00,55.9,54.8,29.85,South,186,2.0,3.0,96,0.04,,,0.06,Wunderground v.1.15,2013-03-12 05:19:00,
2013-03-12 01:24:00,55.9,54.8,29.85,SSE,156,4.0,6.0,96,0.07,,,0.07,Wunderground v.1.15,2013-03-12 05:24:00,
2013-03-12 01:30:00,55.9,54.8,29.85,SSE,152,2.0,3.0,96,0.13,,,0.08,Wunderground v.1.15,2013-03-12 05:30:00,
2013-03-12 01:36:00,56.0,54.9,29.85,South,188,1.0,5.0,96,0.13,,,0.09,Wunderground v.1.15,2013-03-12 05:36:00,
2013-03-12 01:41:00,56.1,55.0,29.84,SE,128,4.0,4.0,96,0.10,,,0.10,Wunderground v.1.15,2013-03-12 05:41:00,
2013-03-12 01:47:00,56.1,55.0,29.84,South,180,2.0,4.0,96,0.06,,,0.10,Wunderground v.1.15,2013-03-12 05:47:00,
2013-03-12 01:53:00,56.1,55.0,29.84,ESE,119,3.0,4.0,96,0.04,,,0.10,Wunderground v.1.15,2013-03-12 05:53:00,
2013-03-12 01:59:00,56.1,55.3,29.83,South,188,0.0,3.0,97,0.00,,,0.11,Wunderground v.1.15,2013-03-12 05:59:00,
2013-03-12 02:05:00,56.1,55.3,29.83,SSE,148,2.0,5.0,97,0.08,,,0.12,Wunderground v.1.15,2013-03-12 06:05:00,
2013-03-12 02:11:00,56.0,55.2,29.82,SSW,201,2.0,4.0,97,0.08,,,0.13,Wunderground v.1.15,2013-03-12 06:11:00,
2013-03-12 02:17:00,56.1,55.3,29.83,South,183,1.0,4.0,97,0.07,,,0.13,Wunderground v.1.15,2013-03-12 06:17:00,
2013-03-12 02:23:00,56.1,55.3,29.83,SSW,198,2.0,3.0,97,0.04,,,0.13,Wunderground v.1.15,2013-03-12 06:23:00,
2013-03-12 02:28:00,56.2,55.4,29.82,SE,127,3.0,3.0,97,0.00,,,0.13,Wunderground v.1.15,2013-03-12 06:28:00,
2013-03-12 02:34:00,56.3,55.5,29.82,ESE,105,1.0,5.0,97,0.00,,,0.14,Wunderground v.1.15,2013-03-12 06:34:00,
2013-03-12 02:40:00,56.3,55.5,29.82,SSW,198,2.0,5.0,97,0.07,,,0.15,Wunderground v.1.15,2013-03-12 06:40:00,
2013-03-12 02:45:00,56.4,55.6,29.82,SSW,199,3.0,5.0,97,0.10,,,0.16,Wunderground v.1.15,2013-03-12 06:45:00,
2013-03-12 02:51:00,56.4,55.6,29.81,SE,142,1.0,2.0,97,0.11,,,0.17,Wunderground v.1.15,2013-03-12 06:51:00,
2013-03-12 02:56:00,56.5,55.7,29.81,SSE,160,2.0,4.0,97,0.09,,,0.17,Wunderground v.1.15,2013-03-12 06:56:00,
2013-03-12 03:01:00,56.7,55.9,29.80,SW,228,7.0,7.0,97,0.08,,,0.18,Wunderground v.1.15,2013-03-12 07:01:00,
2013-03-12 03:06:00,56.8,56.0,29.80,SSW,208,4.0,9.0,97,0.07,,,0.18,Wunderground v.1.15,2013-03-12 07:06:00,
2013-03-12 03:11:00,57.0,56.2,29.80,SSW,193,3.0,9.0,97,0.04,,,0.18,Wunderground v.1.15,2013-03-12 07:11:00,
2013-03-12 03:16:00,57.1,56.3,29.80,ESE,116,1.0,9.0,97,0.04,,,0.19,Wunderground v.1.15,2013-03-12 07:16:00,
2013-03-12 03:21:00,57.2,56.4,29.79,WSW,240,3.0,5.0,97,0.04,,,0.19,Wunderground v.1.15,2013-03-12 07:21:00,
2013-03-12 03:26:00,57.3,56.5,29.78,SW,232,3.0,7.0,97,0.04,,,0.19,Wunderground v.1.15,2013-03-12 07:26:00,
2013-03-12 03:31:00,57.4,56.6,29.78,SSE,163,2.0,5.0,97,0.00,,,0.19,Wunderground v.1.15,2013-03-12 07:31:00,
2013-03-12 03:36:00,57.6,56.8,29.78,South,189,2.0,9.0,97,0.00,,,0.19,Wunderground v.1.15,2013-03-12 07:36:00,
2013-03-12 03:41:00,57.8,56.7,29.77,SW,225,7.0,8.0,96,0.00,,,0.19,Wunderground v.1.15,2013-03-12 07:41:00,
2013-03-12 03:46:00,57.9,56.8,29.77,SSW,193,2.0,8.0,96,0.00,,,0.19,Wunderground v.1.15,2013-03-12 07:46:00,
2013-03-12 03:51:00,58.0,56.9,29.77,West,269,1.0,9.0,96,0.00,,,0.20,Wunderground v.1.15,2013-03-12 07:51:00,
2013-03-12 03:56:00,58.0,56.9,29.77,WSW,245,5.0,9.0,96,0.00,,,0.20,Wunderground v.1.15,2013-03-12 07:56:00,
2013-03-12 04:01:00,58.2,56.8,29.77,SSE,160,3.0,14.0,95,0.05,,,0.21,Wunderground v.1.15,2013-03-12 08:01:00,
2013-03-12 04:06:00,58.3,56.9,29.77,South,183,4.0,14.0,95,0.05,,,0.21,Wunderground v.1.15,2013-03-12 08:06:00,
2013-03-12 04:12:00,58.4,57.0,29.76,SW,224,6.0,7.0,95,0.09,,,0.22,Wunderground v.1.15,2013-03-12 08:12:00,
2013-03-12 04:17:00,58.4,57.0,29.76,SW,217,4.0,11.0,95,0.12,,,0.23,Wunderground v.1.15,2013-03-12 08:17:00,
2013-03-12 04:22:00,58.4,57.0,29.75,WSW,238,2.0,8.0,95,0.16,,,0.25,Wunderground v.1.15,2013-03-12 08:22:00,
2013-03-12 04:27:00,58.4,57.3,29.75,SW,235,3.0,8.0,96,0.16,,,0.27,Wunderground v.1.15,2013-03-12 08:27:00,
2013-03-12 04:32:00,58.4,57.3,29.75,SW,222,4.0,8.0,96,0.11,,,0.27,Wunderground v.1.15,2013-03-12 08:32:00,
2013-03-12 04:37:00,58.6,57.5,29.75,ESE,119,5.0,9.0,96,0.07,,,0.28,Wunderground v.1.15,2013-03-12 08:37:00,
2013-03-12 04:42:00,58.7,57.3,29.75,SW,235,5.0,10.0,95,0.11,,,0.29,Wunderground v.1.15,2013-03-12 08:42:00,
2013-03-12 04:47:00,58.7,57.3,29.75,SSE,150,4.0,13.0,95,0.17,,,0.30,Wunderground v.1.15,2013-03-12 08:47:00,
2013-03-12 04:52:00,58.8,57.4,29.74,SW,218,2.0,9.0,95,0.12,,,0.31,Wunderground v.1.15,2013-03-12 08:52:00,
2013-03-12 04:57:00,58.8,57.4,29.74,SW,214,3.0,9.0,95,0.07,,,0.31,Wunderground v.1.15,2013-03-12 08:57:00,
2013-03-12 05:02:00,58.7,57.6,29.74,SW,224,2.0,7.0,96,0.05,,,0.32,Wunderground v.1.15,2013-03-12 09:02:00,
2013-03-12 05:07:00,58.7,57.6,29.73,SW,225,7.0,10.0,96,0.05,,,0.32,Wunderground v.1.15,2013-03-12 09:07:00,
2013-03-12 05:12:00,58.7,57.6,29.74,WSW,256,1.0,7.0,96,0.07,,,0.33,Wunderground v.1.15,2013-03-12 09:12:00,
2013-03-12 05:17:00,58.6,57.5,29.74,WSW,242,0.0,11.0,96,0.30,,,0.35,Wunderground v.1.15,2013-03-12 09:17:00,
2013-03-12 05:23:00,58.6,57.5,29.74,WSW,249,1.0,6.0,96,0.18,,,0.37,Wunderground v.1.15,2013-03-12 09:23:00,
2013-03-12 05:28:00,58.4,57.3,29.74,SW,215,4.0,6.0,96,0.30,,,0.39,Wunderground v.1.15,2013-03-12 09:28:00,
2013-03-12 05:33:00,58.4,57.6,29.74,SSW,195,3.0,6.0,97,0.16,,,0.40,Wunderground v.1.15,2013-03-12 09:33:00,
2013-03-12 05:38:00,58.3,57.5,29.74,WSW,247,3.0,6.0,97,0.47,,,0.43,Wunderground v.1.15,2013-03-12 09:38:00,
2013-03-12 05:43:00,58.3,57.5,29.74,SSW,208,1.0,4.0,97,0.18,,,0.45,Wunderground v.1.15,2013-03-12 09:43:00,
2013-03-12 05:48:00,58.2,57.4,29.74,SSW,211,3.0,3.0,97,0.15,,,0.46,Wunderground v.1.15,2013-03-12 09:48:00,
2013-03-12 05:53:00,58.2,57.4,29.74,SW,219,0.0,6.0,97,0.29,,,0.48,Wunderground v.1.15,2013-03-12 09:53:00,
2013-03-12 05:58:00,58.2,57.4,29.74,WSW,239,1.0,2.0,97,0.38,,,0.51,Wunderground v.1.15,2013-03-12 09:58:00,
2013-03-12 06:03:00,58.2,57.4,29.74,West,279,1.0,5.0,97,0.20,,,0.52,Wunderground v.1.15,2013-03-12 10:03:00,
2013-03-12 06:08:00,58.2,57.4,29.74,WSW,240,2.0,3.0,97,0.23,,,0.54,Wunderground v.1.15,2013-03-12 10:08:00,
2013-03-12 06:13:00,58.1,57.3,29.74,WNW,284,0.0,4.0,97,0.31,,,0.56,Wunderground v.1.15,2013-03-12 10:13:00,
2013-03-12 06:18:00,58.1,57.3,29.73,WSW,245,3.0,3.0,97,0.16,,,0.57,Wunderground v.1.15,2013-03-12 10:18:00,
2013-03-12 06:23:00,58.1,57.3,29.74,SW,235,0.0,7.0,97,0.13,,,0.58,Wunderground v.1.15,2013-03-12 10:23:00,
2013-03-12 06:28:00,58.1,57.3,29.74,SW,232,2.0,2.0,97,0.08,,,0.58,Wunderground v.1.15,2013-03-12 10:28:00,
2013-03-12 06:33:00,58.1,57.3,29.74,West,274,0.0,3.0,97,0.05,,,0.58,Wunderground v.1.15,2013-03-12 10:33:00,
2013-03-12 06:38:00,58.1,57.3,29.74,SSE,165,3.0,3.0,97,0.00,,,0.58,Wunderground v.1.15,2013-03-12 10:38:00,
2013-03-12 06:44:00,58.1,57.3,29.74,SW,222,2.0,7.0,97,0.00,,,0.58,Wunderground v.1.15,2013-03-12 10:44:00,
2013-03-12 06:49:00,58.1,57.3,29.74,SSE,162,1.0,4.0,97,0.00,,,0.59,Wunderground v.1.15,2013-03-12 10:49:00,
2013-03-12 06:54:00,58.1,57.3,29.74,SSW,211,4.0,6.0,97,0.00,,,0.59,Wunderground v.1.15,2013-03-12 10:54:00,
2013-03-12 06:59:00,58.0,57.2,29.74,WSW,245,4.0,5.0,97,0.00,,,0.59,Wunderground v.1.15,2013-03-12 10:59:00,
2013-03-12 07:04:00,58.1,57.3,29.74,WSW,257,5.0,8.0,97,0.00,,,0.59,Wunderground v.1.15,2013-03-12 11:04:00,
2013-03-12 07:09:00,58.1,57.0,29.74,SSW,207,2.0,6.0,96,0.00,,,0.59,Wunderground v.1.15,2013-03-12 11:09:00,
2013-03-12 07:15:00,58.1,57.0,29.74,West,260,0.0,6.0,96,0.00,,,0.59,Wunderground v.1.15,2013-03-12 11:15:00,
2013-03-12 07:20:00,58.1,57.0,29.74,SSW,207,4.0,5.0,96,0.00,,,0.59,Wunderground v.1.15,2013-03-12 11:20:00,
2013-03-12 07:25:00,58.1,57.0,29.75,West,263,1.0,6.0,96,0.00,,,0.59,Wunderground v.1.15,2013-03-12 11:25:00,
2013-03-12 07:30:00,58.0,57.2,29.74,WSW,257,2.0,6.0,97,0.00,,,0.59,Wunderground v.1.15,2013-03-12 11:30:00,
2013-03-12 07:35:00,58.0,57.2,29.74,SW,218,2.0,6.0,97,0.00,,,0.59,Wunderground v.1.15,2013-03-12 11:35:00,
2013-03-12 07:40:00,58.0,57.2,29.74,WSW,253,5.0,5.0,97,0.00,,,0.59,Wunderground v.1.15,2013-03-12 11:40:00,
2013-03-12 07:45:00,58.1,57.3,29.75,WSW,239,5.0,9.0,97,0.00,,,0.59,Wunderground v.1.15,2013-03-12 11:45:00,
2013-03-12 07:50:00,58.1,57.3,29.75,SW,217,1.0,6.0,97,0.00,,,0.59,Wunderground v.1.15,2013-03-12 11:50:00,
2013-03-12 07:55:00,58.1,57.3,29.74,WSW,245,2.0,8.0,97,0.00,,,0.59,Wunderground v.1.15,2013-03-12 11:55:00,
2013-03-12 08:00:00,58.1,57.3,29.75,SW,229,5.0,9.0,97,0.00,,,0.60,Wunderground v.1.15,2013-03-12 12:00:00,
2013-03-12 08:05:00,58.1,57.3,29.75,SW,228,4.0,9.0,97,0.00,,,0.60,Wunderground v.1.15,2013-03-12 12:05:00,
2013-03-12 08:10:00,58.1,57.3,29.75,West,264,3.0,6.0,97,0.00,,,0.60,Wunderground v.1.15,2013-03-12 12:10:00,
2013-03-12 08:15:00,58.2,57.4,29.75,WSW,240,3.0,8.0,97,0.00,,,0.60,Wunderground v.1.15,2013-03-12 12:15:00,
2013-03-12 08:20:00,58.2,57.4,29.75,West,278,1.0,7.0,97,0.00,,,0.60,Wunderground v.1.15,2013-03-12 12:20:00,
2013-03-12 08:25:00,58.2,57.4,29.75,West,266,2.0,7.0,97,0.00,,,0.60,Wunderground v.1.15,2013-03-12 12:25:00,
2013-03-12 08:30:00,58.2,57.4,29.76,WNW,298,7.0,7.0,97,0.00,,,0.60,Wunderground v.1.15,2013-03-12 12:30:00,
2013-03-12 08:35:00,57.5,55.8,29.77,WNW,294,2.0,10.0,94,0.20,,,0.62,Wunderground v.1.15,2013-03-12 12:35:00,
2013-03-12 08:40:00,56.9,55.5,29.77,West,273,1.0,7.0,95,0.11,,,0.62,Wunderground v.1.15,2013-03-12 12:40:00,
2013-03-12 08:45:00,56.6,55.2,29.77,WNW,285,1.0,7.0,95,0.06,,,0.62,Wunderground v.1.15,2013-03-12 12:45:00,
2013-03-12 08:50:00,56.3,54.9,29.77,West,266,2.0,7.0,95,0.04,,,0.62,Wunderground v.1.15,2013-03-12 12:50:00,
2013-03-12 08:55:00,56.1,54.7,29.78,West,264,1.0,7.0,95,0.00,,,0.62,Wunderground v.1.15,2013-03-12 12:55:00,
2013-03-12 09:00:00,55.9,54.8,29.77,West,277,3.0,3.0,96,0.00,,,0.62,Wunderground v.1.15,2013-03-12 13:00:00,
2013-03-12 09:05:00,55.8,54.7,29.78,West,278,3.0,6.0,96,0.00,,,0.62,Wunderground v.1.15,2013-03-12 13:05:00,
2013-03-12 09:10:00,55.7,54.6,29.78,West,267,3.0,4.0,96,0.00,,,0.62,Wunderground v.1.15,2013-03-12 13:10:00,
2013-03-12 09:15:00,55.6,54.5,29.78,NW,325,1.0,5.0,96,0.00,,,0.62,Wunderground v.1.15,2013-03-12 13:15:00,
2013-03-12 09:20:00,55.6,54.5,29.78,West,273,1.0,2.0,96,0.00,,,0.63,Wunderground v.1.15,2013-03-12 13:20:00,
2013-03-12 09:25:00,55.5,54.4,29.78,WSW,257,0.0,2.0,96,0.00,,,0.63,Wunderground v.1.15,2013-03-12 13:25:00,
2013-03-12 09:30:00,55.6,54.5,29.78,WNW,297,1.0,2.0,96,0.00,,,0.63,Wunderground v.1.15,2013-03-12 13:30:00,
2013-03-12 09:35:00,55.6,54.5,29.78,West,266,1.0,2.0,96,0.05,,,0.64,Wunderground v.1.15,2013-03-12 13:35:00,
2013-03-12 09:40:00,55.7,54.6,29.78,WSW,257,2.0,2.0,96,0.05,,,0.64,Wunderground v.1.15,2013-03-12 13:40:00,
2013-03-12 09:45:00,55.7,54.6,29.79,West,267,1.0,2.0,96,0.04,,,0.64,Wunderground v.1.15,2013-03-12 13:45:00,
2013-03-12 09:50:00,55.8,55.0,29.79,West,259,0.0,1.0,97,0.00,,,0.64,Wunderground v.1.15,2013-03-12 13:50:00,
2013-03-12 09:55:00,55.9,55.1,29.79,WSW,246,1.0,1.0,97,0.00,,,0.64,Wunderground v.1.15,2013-03-12 13:55:00,
2013-03-12 10:00:00,55.9,54.8,29.79,West,263,0.0,2.0,96,0.00,,,0.64,Wunderground v.1.15,2013-03-12 14:00:00,
2013-03-12 10:05:00,55.9,55.1,29.79,West,262,0.0,2.0,97,0.00,,,0.65,Wunderground v.1.15,2013-03-12 14:05:00,
2013-03-12 10:10:00,55.9,54.8,29.79,West,271,1.0,1.0,96,0.00,,,0.65,Wunderground v.1.15,2013-03-12 14:10:00,
2013-03-12 10:15:00,55.9,54.8,29.79,West,264,2.0,3.0,96,0.00,,,0.65,Wunderground v.1.15,2013-03-12 14:15:00,
2013-03-12 10:20:00,55.9,54.8,29.80,West,273,1.0,2.0,96,0.00,,,0.65,Wunderground v.1.15,2013-03-12 14:20:00,
2013-03-12 10:25:00,56.0,54.9,29.80,WSW,253,1.0,3.0,96,0.00,,,0.65,Wunderground v.1.15,2013-03-12 14:25:00,
2013-03-12 10:30:00,56.0,54.6,29.80,WNW,288,1.0,4.0,95,0.00,,,0.65,Wunderground v.1.15,2013-03-12 14:30:00,
2013-03-12 10:35:00,56.0,54.6,29.80,West,273,3.0,4.0,95,0.00,,,0.65,Wunderground v.1.15,2013-03-12 14:35:00,
2013-03-12 10:40:00,56.0,54.6,29.81,West,277,2.0,5.0,95,0.00,,,0.65,Wunderground v.1.15,2013-03-12 14:40:00,
2013-03-12 10:45:00,55.9,54.5,29.81,West,262,3.0,5.0,95,0.00,,,0.65,Wunderground v.1.15,2013-03-12 14:45:00,
2013-03-12 10:50:00,55.8,53.5,29.82,NNW,343,5.0,5.0,92,0.00,,,0.65,Wunderground v.1.15,2013-03-12 14:50:00,
2013-03-12 10:56:00,55.7,53.4,29.82,NW,305,2.0,7.0,92,0.00,,,0.65,Wunderground v.1.15,2013-03-12 14:56:00,
2013-03-12 11:01:00,55.2,51.7,29.82,NW,305,2.0,7.0,88,0.00,,,0.65,Wunderground v.1.15,2013-03-12 15:01:00,
2013-03-12 11:05:00,54.9,50.8,29.83,NW,310,4.0,10.0,86,0.00,,,0.65,Wunderground v.1.15,2013-03-12 15:05:00,
2013-03-12 11:11:00,54.5,50.1,29.83,NNW,342,2.0,6.0,85,0.00,,,0.65,Wunderground v.1.15,2013-03-12 15:11:00,
2013-03-12 11:16:00,54.1,49.4,29.83,North,357,1.0,11.0,84,0.00,,,0.65,Wunderground v.1.15,2013-03-12 15:16:00,
2013-03-12 11:20:00,53.9,49.2,29.83,West,264,1.0,4.0,84,0.00,,,0.65,Wunderground v.1.15,2013-03-12 15:20:00,
2013-03-12 11:26:00,54.1,49.1,29.83,NNE,33,2.0,5.0,83,0.00,,,0.65,Wunderground v.1.15,2013-03-12 15:26:00,
2013-03-12 11:31:00,54.6,50.5,29.83,WSW,250,2.0,5.0,86,0.00,,,0.65,Wunderground v.1.15,2013-03-12 15:31:00,
2013-03-12 11:36:00,55.5,49.8,29.83,West,269,5.0,6.0,81,0.00,,,0.65,Wunderground v.1.15,2013-03-12 15:36:00,
2013-03-12 11:41:00,55.8,50.1,29.83,WNW,283,7.0,10.0,81,0.00,,,0.65,Wunderground v.1.15,2013-03-12 15:41:00,
2013-03-12 11:46:00,56.2,50.1,29.83,NW,308,3.0,10.0,80,0.00,,,0.65,Wunderground v.1.15,2013-03-12 15:46:00,
2013-03-12 11:51:00,56.7,49.6,29.83,NNW,334,1.0,6.0,77,0.00,,,0.65,Wunderground v.1.15,2013-03-12 15:51:00,
2013-03-12 11:56:00,57.1,49.2,29.83,NNW,342,2.0,7.0,75,0.00,,,0.65,Wunderground v.1.15,2013-03-12 15:56:00,
2013-03-12 12:01:00,57.8,50.3,29.83,WNW,300,2.0,4.0,76,0.00,,,0.65,Wunderground v.1.15,2013-03-12 16:01:00,
2013-03-12 12:06:00,58.4,51.2,29.83,NE,48,2.0,4.0,77,0.00,,,0.65,Wunderground v.1.15,2013-03-12 16:06:00,
2013-03-12 12:11:00,59.2,51.3,29.83,NNW,335,3.0,4.0,75,0.00,,,0.65,Wunderground v.1.15,2013-03-12 16:11:00,
2013-03-12 12:16:00,59.3,50.3,29.83,West,276,1.0,7.0,72,0.00,,,0.65,Wunderground v.1.15,2013-03-12 16:16:00,
2013-03-12 12:21:00,59.3,50.3,29.83,NE,40,1.0,3.0,72,0.00,,,0.65,Wunderground v.1.15,2013-03-12 16:21:00,
2013-03-12 12:26:00,59.4,51.1,29.83,North,358,3.0,6.0,74,0.00,,,0.65,Wunderground v.1.15,2013-03-12 16:26:00,
2013-03-12 12:31:00,59.4,49.2,29.83,West,281,5.0,7.0,69,0.00,,,0.65,Wunderground v.1.15,2013-03-12 16:31:00,
2013-03-12 12:36:00,59.6,50.2,29.82,ENE,72,1.0,7.0,71,0.00,,,0.65,Wunderground v.1.15,2013-03-12 16:36:00,
2013-03-12 12:41:00,60.4,50.2,29.83,West,270,0.0,4.0,69,0.00,,,0.65,Wunderground v.1.15,2013-03-12 16:41:00,
2013-03-12 12:47:00,60.5,49.5,29.82,SW,218,1.0,4.0,67,0.00,,,0.65,Wunderground v.1.15,2013-03-12 16:47:00,
2013-03-12 12:52:00,60.6,49.2,29.82,West,274,4.0,9.0,66,0.00,,,0.65,Wunderground v.1.15,2013-03-12 16:52:00,
2013-03-12 12:57:00,61.0,49.1,29.82,WNW,302,1.0,9.0,65,0.00,,,0.65,Wunderground v.1.15,2013-03-12 16:57:00,
2013-03-12 13:02:00,61.4,49.9,29.82,NNW,330,1.0,6.0,66,0.00,,,0.65,Wunderground v.1.15,2013-03-12 17:02:00,
2013-03-12 13:07:00,61.6,50.1,29.82,WSW,249,1.0,6.0,66,0.00,,,0.65,Wunderground v.1.15,2013-03-12 17:07:00,
2013-03-12 13:12:00,61.9,50.4,29.81,WNW,291,1.0,5.0,66,0.00,,,0.65,Wunderground v.1.15,2013-03-12 17:12:00,
2013-03-12 13:17:00,62.2,49.9,29.81,West,281,2.0,5.0,64,0.00,,,0.65,Wunderground v.1.15,2013-03-12 17:17:00,
2013-03-12 13:22:00,62.4,49.2,29.81,WSW,248,2.0,2.0,62,0.00,,,0.65,Wunderground v.1.15,2013-03-12 17:22:00,
2013-03-12 13:27:00,62.4,49.6,29.81,West,262,6.0,7.0,63,0.00,,,0.65,Wunderground v.1.15,2013-03-12 17:27:00,
2013-03-12 13:32:00,62.7,49.9,29.81,West,273,3.0,5.0,63,0.00,,,0.65,Wunderground v.1.15,2013-03-12 17:32:00,
2013-03-12 13:37:00,62.7,48.6,29.81,West,267,6.0,6.0,60,0.00,,,0.65,Wunderground v.1.15,2013-03-12 17:37:00,
2013-03-12 13:43:00,62.5,49.7,29.81,WSW,245,4.0,4.0,63,0.00,,,0.65,Wunderground v.1.15,2013-03-12 17:43:00,
2013-03-12 13:48:00,62.4,49.2,29.81,NW,307,4.0,4.0,62,0.00,,,0.65,Wunderground v.1.15,2013-03-12 17:48:00,
2013-03-12 13:53:00,61.9,47.9,29.80,West,273,4.0,7.0,60,0.00,,,0.65,Wunderground v.1.15,2013-03-12 17:53:00,
2013-03-12 13:58:00,62.5,48.9,29.80,WNW,302,3.0,7.0,61,0.00,,,0.65,Wunderground v.1.15,2013-03-12 17:58:00,
2013-03-12 14:03:00,63.2,48.6,29.81,WNW,289,4.0,11.0,59,0.00,,,0.65,Wunderground v.1.15,2013-03-12 18:03:00,
2013-03-12 14:08:00,63.2,48.6,29.81,WNW,302,4.0,11.0,59,0.00,,,0.65,Wunderground v.1.15,2013-03-12 18:08:00,
2013-03-12 14:13:00,63.7,48.6,29.81,WNW,300,3.0,6.0,58,0.00,,,0.65,Wunderground v.1.15,2013-03-12 18:13:00,
2013-03-12 14:18:00,63.9,48.4,29.81,NW,307,3.0,3.0,57,0.00,,,0.65,Wunderground v.1.15,2013-03-12 18:18:00,
2013-03-12 14:23:00,63.3,47.8,29.80,West,267,8.0,8.0,57,0.00,,,0.65,Wunderground v.1.15,2013-03-12 18:23:00,
2013-03-12 14:28:00,63.4,49.3,29.80,WSW,252,3.0,10.0,60,0.00,,,0.65,Wunderground v.1.15,2013-03-12 18:28:00,
2013-03-12 14:33:00,64.1,47.6,29.80,WNW,302,2.0,7.0,55,0.00,,,0.65,Wunderground v.1.15,2013-03-12 18:33:00,
2013-03-12 14:38:00,64.1,47.6,29.80,West,277,4.0,4.0,55,0.00,,,0.65,Wunderground v.1.15,2013-03-12 18:38:00,
2013-03-12 14:43:00,64.1,48.1,29.80,West,278,2.0,7.0,56,0.00,,,0.65,Wunderground v.1.15,2013-03-12 18:43:00,
2013-03-12 14:48:00,64.2,48.6,29.80,NW,307,1.0,3.0,57,0.00,,,0.65,Wunderground v.1.15,2013-03-12 18:48:00,
2013-03-12 14:53:00,65.0,47.9,29.81,WSW,240,2.0,6.0,54,0.00,,,0.65,Wunderground v.1.15,2013-03-12 18:53:00,
2013-03-12 14:58:00,64.6,47.6,29.81,WNW,290,1.0,3.0,54,0.00,,,0.65,Wunderground v.1.15,2013-03-12 18:58:00,
2013-03-12 15:03:00,64.9,47.4,29.81,WNW,294,5.0,6.0,53,0.00,,,0.65,Wunderground v.1.15,2013-03-12 19:03:00,
2013-03-12 15:08:00,64.8,47.8,29.81,WNW,295,5.0,5.0,54,0.00,,,0.65,Wunderground v.1.15,2013-03-12 19:08:00,
2013-03-12 15:13:00,65.1,48.0,29.81,NNW,328,3.0,6.0,54,0.00,,,0.65,Wunderground v.1.15,2013-03-12 19:13:00,
2013-03-12 15:18:00,64.9,45.8,29.81,WNW,302,3.0,4.0,50,0.00,,,0.65,Wunderground v.1.15,2013-03-12 19:18:00,
2013-03-12 15:23:00,63.9,45.4,29.80,West,269,8.0,12.0,51,0.00,,,0.65,Wunderground v.1.15,2013-03-12 19:23:00,
2013-03-12 15:28:00,63.9,45.4,29.80,West,262,5.0,5.0,51,0.00,,,0.65,Wunderground v.1.15,2013-03-12 19:28:00,
2013-03-12 15:34:00,63.9,44.4,29.80,NW,316,2.0,10.0,49,0.00,,,0.65,Wunderground v.1.15,2013-03-12 19:34:00,
2013-03-12 15:39:00,64.2,44.6,29.81,NE,34,3.0,4.0,49,0.00,,,0.65,Wunderground v.1.15,2013-03-12 19:39:00,
2013-03-12 15:44:00,64.7,44.0,29.81,North,360,3.0,7.0,47,0.00,,,0.65,Wunderground v.1.15,2013-03-12 19:44:00,
2013-03-12 15:49:00,64.5,43.8,29.81,West,259,6.0,6.0,47,0.00,,,0.65,Wunderground v.1.15,2013-03-12 19:49:00,
2013-03-12 15:54:00,64.4,43.7,29.81,WNW,300,7.0,7.0,47,0.00,,,0.65,Wunderground v.1.15,2013-03-12 19:54:00,
2013-03-12 15:59:00,64.2,41.8,29.82,NW,323,5.0,9.0,44,0.00,,,0.65,Wunderground v.1.15,2013-03-12 19:59:00,
2013-03-12 16:04:00,63.7,40.8,29.82,NE,39,5.0,12.0,43,0.00,,,0.65,Wunderground v.1.15,2013-03-12 20:04:00,
2013-03-12 16:09:00,63.6,40.7,29.81,NW,311,5.0,8.0,43,0.00,,,0.65,Wunderground v.1.15,2013-03-12 20:09:00,
2013-03-12 16:14:00,63.9,41.5,29.82,West,267,3.0,8.0,44,0.00,,,0.65,Wunderground v.1.15,2013-03-12 20:14:00,
2013-03-12 16:19:00,64.1,40.5,29.82,NW,305,4.0,6.0,42,0.00,,,0.65,Wunderground v.1.15,2013-03-12 20:19:00,
2013-03-12 16:24:00,63.6,40.7,29.82,NW,307,5.0,9.0,43,0.00,,,0.65,Wunderground v.1.15,2013-03-12 20:24:00,
2013-03-12 16:29:00,63.8,39.6,29.82,North,9,1.0,7.0,41,0.00,,,0.65,Wunderground v.1.15,2013-03-12 20:29:00,
2013-03-12 16:34:00,63.7,38.9,29.83,South,169,2.0,11.0,40,0.00,,,0.65,Wunderground v.1.15,2013-03-12 20:34:00,
2013-03-12 16:39:00,63.7,40.2,29.83,West,269,1.0,4.0,42,0.00,,,0.65,Wunderground v.1.15,2013-03-12 20:39:00,
2013-03-12 16:44:00,63.7,38.3,29.82,WNW,297,3.0,16.0,39,0.00,,,0.65,Wunderground v.1.15,2013-03-12 20:44:00,
2013-03-12 16:49:00,63.5,39.4,29.82,North,5,3.0,3.0,41,0.00,,,0.65,Wunderground v.1.15,2013-03-12 20:49:00,
2013-03-12 16:54:00,63.3,36.6,29.82,WNW,295,5.0,10.0,37,0.00,,,0.65,Wunderground v.1.15,2013-03-12 20:54:00,
2013-03-12 16:59:00,62.8,36.8,29.82,WSW,240,5.0,6.0,38,0.00,,,0.65,Wunderground v.1.15,2013-03-12 20:59:00,
2013-03-12 17:04:00,62.9,36.2,29.83,SSW,210,1.0,8.0,37,0.00,,,0.65,Wunderground v.1.15,2013-03-12 21:04:00,
2013-03-12 17:09:00,63.0,37.0,29.83,WNW,290,2.0,5.0,38,0.00,,,0.65,Wunderground v.1.15,2013-03-12 21:09:00,
2013-03-12 17:14:00,63.1,35.7,29.83,ESE,120,4.0,6.0,36,0.00,,,0.65,Wunderground v.1.15,2013-03-12 21:14:00,
2013-03-12 17:19:00,62.9,33.3,29.83,East,100,2.0,5.0,33,0.00,,,0.65,Wunderground v.1.15,2013-03-12 21:19:00,
2013-03-12 17:24:00,62.6,32.3,29.84,NW,307,2.0,8.0,32,0.00,,,0.65,Wunderground v.1.15,2013-03-12 21:24:00,
2013-03-12 17:29:00,62.0,34.7,29.84,West,280,3.0,4.0,36,0.00,,,0.65,Wunderground v.1.15,2013-03-12 21:29:00,
2013-03-12 17:35:00,61.7,34.5,29.84,West,268,3.0,11.0,36,0.00,,,0.65,Wunderground v.1.15,2013-03-12 21:35:00,
2013-03-12 17:40:00,61.6,34.4,29.84,North,11,6.0,6.0,36,0.00,,,0.65,Wunderground v.1.15,2013-03-12 21:40:00,
2013-03-12 17:45:00,61.7,35.1,29.84,NW,324,8.0,9.0,37,0.00,,,0.65,Wunderground v.1.15,2013-03-12 21:45:00,
2013-03-12 17:50:00,61.6,34.4,29.84,NNE,25,1.0,4.0,36,0.00,,,0.65,Wunderground v.1.15,2013-03-12 21:50:00,
2013-03-12 17:55:00,61.5,34.3,29.84,West,263,4.0,9.0,36,0.00,,,0.65,Wunderground v.1.15,2013-03-12 21:55:00,
2013-03-12 18:00:00,61.1,35.3,29.84,North,11,2.0,5.0,38,0.00,,,0.65,Wunderground v.1.15,2013-03-12 22:00:00,
2013-03-12 18:05:00,61.3,35.5,29.84,NW,305,2.0,7.0,38,0.00,,,0.65,Wunderground v.1.15,2013-03-12 22:05:00,
2013-03-12 18:10:00,61.1,34.6,29.84,NW,305,1.0,3.0,37,0.00,,,0.65,Wunderground v.1.15,2013-03-12 22:10:00,
2013-03-12 18:15:00,61.2,36.0,29.84,West,266,2.0,6.0,39,0.00,,,0.65,Wunderground v.1.15,2013-03-12 22:15:00,
2013-03-12 18:20:00,60.9,35.1,29.85,WSW,257,5.0,8.0,38,0.00,,,0.65,Wunderground v.1.15,2013-03-12 22:20:00,
2013-03-12 18:25:00,60.5,34.7,29.85,North,353,4.0,8.0,38,0.00,,,0.65,Wunderground v.1.15,2013-03-12 22:25:00,
2013-03-12 18:30:00,60.3,34.6,29.85,WNW,302,4.0,9.0,38,0.00,,,0.65,Wunderground v.1.15,2013-03-12 22:30:00,
2013-03-12 18:35:00,59.9,34.9,29.85,WNW,293,5.0,10.0,39,0.00,,,0.65,Wunderground v.1.15,2013-03-12 22:35:00,
2013-03-12 18:40:00,59.5,33.9,29.86,West,263,2.0,6.0,38,0.00,,,0.65,Wunderground v.1.15,2013-03-12 22:40:00,
2013-03-12 18:45:00,59.2,33.6,29.86,West,268,5.0,11.0,38,0.00,,,0.65,Wunderground v.1.15,2013-03-12 22:45:00,
2013-03-12 18:50:00,58.8,33.2,29.86,WSW,248,2.0,7.0,38,0.00,,,0.65,Wunderground v.1.15,2013-03-12 22:50:00,
2013-03-12 18:55:00,58.4,32.2,29.87,NW,307,4.0,8.0,37,0.00,,,0.65,Wunderground v.1.15,2013-03-12 22:55:00,
2013-03-12 19:00:00,57.9,33.1,29.87,West,269,7.0,8.0,39,0.00,,,0.65,Wunderground v.1.15,2013-03-12 23:00:00,
2013-03-12 19:05:00,57.0,32.3,29.87,SW,236,2.0,8.0,39,0.00,,,0.65,Wunderground v.1.15,2013-03-12 23:05:00,
2013-03-12 19:10:00,56.3,32.3,29.88,West,269,3.0,8.0,40,0.00,,,0.65,Wunderground v.1.15,2013-03-12 23:10:00,
2013-03-12 19:15:00,55.8,31.8,29.88,West,275,3.0,10.0,40,0.00,,,0.65,Wunderground v.1.15,2013-03-12 23:15:00,
2013-03-12 19:20:00,55.3,32.6,29.88,NNW,328,1.0,9.0,42,0.00,,,0.65,Wunderground v.1.15,2013-03-12 23:20:00,
2013-03-12 19:25:00,54.9,31.6,29.89,West,277,1.0,15.0,41,0.00,,,0.65,Wunderground v.1.15,2013-03-12 23:25:00,
2013-03-12 19:30:00,54.6,31.9,29.89,WNW,297,1.0,6.0,42,0.00,,,0.65,Wunderground v.1.15,2013-03-12 23:30:00,
2013-03-12 19:35:00,54.2,31.6,29.89,NNW,342,6.0,6.0,42,0.00,,,0.65,Wunderground v.1.15,2013-03-12 23:35:00,
2013-03-12 19:40:00,54.0,31.4,29.89,WNW,294,3.0,8.0,42,0.00,,,0.65,Wunderground v.1.15,2013-03-12 23:40:00,
2013-03-12 19:45:00,53.8,31.8,29.90,NW,321,8.0,11.0,43,0.00,,,0.65,Wunderground v.1.15,2013-03-12 23:45:00,
2013-03-12 19:50:00,53.6,31.6,29.90,NW,309,7.0,10.0,43,0.00,,,0.65,Wunderground v.1.15,2013-03-12 23:50:00,
2013-03-12 19:55:00,53.5,32.1,29.90,WNW,295,7.0,10.0,44,0.00,,,0.65,Wunderground v.1.15,2013-03-12 23:55:00,
2013-03-12 20:00:00,53.2,32.4,29.91,West,260,2.0,6.0,45,0.00,,,0.65,Wunderground v.1.15,2013-03-13 00:00:00,
2013-03-12 20:05:00,53.0,32.8,29.91,NW,307,2.0,7.0,46,0.00,,,0.65,Wunderground v.1.15,2013-03-13 00:05:00,
2013-03-12 20:10:00,52.8,33.1,29.92,West,281,1.0,6.0,47,0.00,,,0.65,Wunderground v.1.15,2013-03-13 00:10:00,
2013-03-12 20:15:00,52.6,32.9,29.92,WSW,249,8.0,8.0,47,0.00,,,0.65,Wunderground v.1.15,2013-03-13 00:15:00,
2013-03-12 20:20:00,52.5,32.8,29.92,West,264,2.0,3.0,47,0.00,,,0.65,Wunderground v.1.15,2013-03-13 00:20:00,
2013-03-12 20:25:00,52.3,33.2,29.93,WNW,295,1.0,5.0,48,0.00,,,0.65,Wunderground v.1.15,2013-03-13 00:25:00,
2013-03-12 20:30:00,52.0,33.4,29.93,WSW,256,1.0,4.0,49,0.00,,,0.65,Wunderground v.1.15,2013-03-13 00:30:00,
2013-03-12 20:36:00,51.7,33.1,29.93,WNW,287,0.0,5.0,49,0.00,,,0.65,Wunderground v.1.15,2013-03-13 00:36:00,
2013-03-12 20:41:00,51.5,33.5,29.93,NNE,12,1.0,2.0,50,0.00,,,0.65,Wunderground v.1.15,2013-03-13 00:41:00,
2013-03-12 20:46:00,51.2,33.2,29.93,WNW,290,3.0,5.0,50,0.00,,,0.65,Wunderground v.1.15,2013-03-13 00:46:00,
2013-03-12 20:51:00,51.0,33.0,29.94,West,262,2.0,3.0,50,0.00,,,0.65,Wunderground v.1.15,2013-03-13 00:51:00,
2013-03-12 20:56:00,50.8,33.3,29.94,WNW,298,0.0,3.0,51,0.00,,,0.65,Wunderground v.1.15,2013-03-13 00:56:00,
2013-03-12 21:01:00,50.5,33.0,29.94,NNE,13,2.0,3.0,51,0.00,,,0.65,Wunderground v.1.15,2013-03-13 01:01:00,
2013-03-12 21:06:00,50.3,33.3,29.94,SW,232,0.0,3.0,52,0.00,,,0.65,Wunderground v.1.15,2013-03-13 01:06:00,
2013-03-12 21:11:00,49.7,33.7,29.94,NE,43,2.0,3.0,54,0.00,,,0.65,Wunderground v.1.15,2013-03-13 01:11:00,
2013-03-12 21:16:00,49.7,33.7,29.95,WNW,293,3.0,3.0,54,0.00,,,0.65,Wunderground v.1.15,2013-03-13 01:16:00,
2013-03-12 21:22:00,49.6,34.1,29.95,West,269,0.0,3.0,55,0.00,,,0.65,Wunderground v.1.15,2013-03-13 01:22:00,
2013-03-12 21:27:00,49.3,34.3,29.94,West,259,0.0,3.0,56,0.00,,,0.65,Wunderground v.1.15,2013-03-13 01:27:00,
2013-03-12 21:32:00,49.0,34.4,29.95,West,269,0.0,1.0,57,0.00,,,0.65,Wunderground v.1.15,2013-03-13 01:32:00,
2013-03-12 21:37:00,48.7,34.6,29.95,WNW,293,2.0,4.0,58,0.00,,,0.65,Wunderground v.1.15,2013-03-13 01:37:00,
2013-03-12 21:42:00,48.7,34.6,29.95,West,270,0.0,2.0,58,0.00,,,0.65,Wunderground v.1.15,2013-03-13 01:42:00,
2013-03-12 21:47:00,48.6,34.9,29.95,West,265,1.0,5.0,59,0.00,,,0.65,Wunderground v.1.15,2013-03-13 01:47:00,
2013-03-12 21:52:00,48.5,34.8,29.95,WNW,285,1.0,3.0,59,0.00,,,0.65,Wunderground v.1.15,2013-03-13 01:52:00,
2013-03-12 21:57:00,48.4,35.1,29.95,West,278,1.0,4.0,60,0.00,,,0.65,Wunderground v.1.15,2013-03-13 01:57:00,
2013-03-12 22:02:00,48.3,35.0,29.95,West,265,0.0,1.0,60,0.00,,,0.65,Wunderground v.1.15,2013-03-13 02:02:00,
2013-03-12 22:07:00,48.2,35.4,29.96,West,269,0.0,2.0,61,0.00,,,0.65,Wunderground v.1.15,2013-03-13 02:07:00,
2013-03-12 22:12:00,47.9,35.1,29.96,West,269,0.0,0.0,61,0.00,,,0.65,Wunderground v.1.15,2013-03-13 02:12:00,
2013-03-12 22:17:00,47.6,35.2,29.96,West,280,0.0,0.0,62,0.00,,,0.65,Wunderground v.1.15,2013-03-13 02:17:00,
2013-03-12 22:22:00,47.5,35.1,29.96,West,280,0.0,0.0,62,0.00,,,0.65,Wunderground v.1.15,2013-03-13 02:22:00,
2013-03-12 22:27:00,47.3,35.3,29.96,WNW,289,0.0,3.0,63,0.00,,,0.65,Wunderground v.1.15,2013-03-13 02:27:00,
2013-03-12 22:32:00,47.2,35.2,29.96,WNW,290,1.0,1.0,63,0.00,,,0.65,Wunderground v.1.15,2013-03-13 02:32:00,
2013-03-12 22:37:00,46.8,35.3,29.97,West,277,0.0,1.0,64,0.00,,,0.65,Wunderground v.1.15,2013-03-13 02:37:00,
2013-03-12 22:42:00,46.4,35.3,29.97,West,277,0.0,0.0,65,0.00,,,0.65,Wunderground v.1.15,2013-03-13 02:42:00,
2013-03-12 22:47:00,45.9,35.2,29.96,West,277,0.0,0.0,66,0.00,,,0.65,Wunderground v.1.15,2013-03-13 02:47:00,
2013-03-12 22:52:00,45.3,37.5,29.96,West,277,0.0,0.0,74,0.00,,,0.65,Wunderground v.1.15,2013-03-13 02:52:00,
2013-03-12 22:57:00,44.5,37.1,29.96,NNE,20,0.0,0.0,75,0.00,,,0.65,Wunderground v.1.15,2013-03-13 02:57:00,
2013-03-12 23:02:00,43.8,36.0,29.96,NNE,20,0.0,0.0,74,0.00,,,0.65,Wunderground v.1.15,2013-03-13 03:02:00,
2013-03-12 23:07:00,43.4,36.0,29.96,NNE,16,0.0,0.0,75,0.00,,,0.65,Wunderground v.1.15,2013-03-13 03:07:00,
2013-03-12 23:12:00,42.8,35.8,29.96,ENE,71,0.0,2.0,76,0.00,,,0.65,Wunderground v.1.15,2013-03-13 03:12:00,
2013-03-12 23:17:00,42.6,35.2,29.96,ENE,71,0.0,2.0,75,0.00,,,0.65,Wunderground v.1.15,2013-03-13 03:17:00,
2013-03-12 23:22:00,42.8,35.1,29.96,NNE,12,0.0,4.0,74,0.00,,,0.65,Wunderground v.1.15,2013-03-13 03:22:00,
2013-03-12 23:27:00,42.9,35.2,29.96,ESE,111,1.0,4.0,74,0.00,,,0.65,Wunderground v.1.15,2013-03-13 03:27:00,
2013-03-12 23:32:00,43.2,34.8,29.96,ESE,110,0.0,1.0,72,0.00,,,0.65,Wunderground v.1.15,2013-03-13 03:32:00,
2013-03-12 23:37:00,42.8,35.1,29.97,West,281,0.0,1.0,74,0.00,,,0.65,Wunderground v.1.15,2013-03-13 03:37:00,
2013-03-12 23:42:00,41.8,35.1,29.97,SSW,199,0.0,1.0,77,0.00,,,0.65,Wunderground v.1.15,2013-03-13 03:42:00,
2013-03-12 23:47:00,41.4,34.7,29.97,SSW,201,0.0,1.0,77,0.00,,,0.65,Wunderground v.1.15,2013-03-13 03:47:00,
2013-03-12 23:52:00,41.6,34.6,29.97,SSW,200,0.0,0.0,76,0.00,,,0.65,Wunderground v.1.15,2013-03-13 03:52:00,
2013-03-12 23:58:00,41.3,35.3,29.98,SSW,204,0.0,0.0,79,0.00,,,0.65,Wunderground v.1.15,2013-03-13 03:58:00,